Montgomery, AL

6:55 AM CDT on March 27, 2017 (GMT -0500)
Montgomery Regional

Weather History for KMGM - February, 2013

Change the Weather History Date:

Sunday, February 24, 2013

  Actual Average Record
Temperature  
Mean Temperature 55 °F 53 °F  
Max Temperature 72 °F 64 °F 83 °F (2017)
Min Temperature 38 °F 41 °F 20 °F (1989)
Degree Days  
Heating Degree Days 10 12  
Month to date heating degree days 337 362  
Since 1 July heating degree days 1426 1824  
Growing Degree Days 6 (Base 50)    
Moisture  
Dew Point 41 °F    
Average Humidity 65    
Maximum Humidity 100    
Minimum Humidity 29    
Precipitation  
Precipitation 0.00 in 0.19 in 5.54 in (1961)
Month to date precipitation 10.71 4.53  
Year to date precipitation 14.12 9.18  
Snow  
Snow 0.00 in 0.00 in - ()
Month to date snowfall 0.0 0.0  
Since 1 July snowfall 0.0 0.1  
Snow Depth 0.00 in    
Sea Level Pressure  
Sea Level Pressure 29.98 in    
Wind  
Wind Speed 3 mph (NE)    
Max Wind Speed 8 mph    
Max Gust Speed 22 mph    
Visibility 4 miles    
Events Fog    
T = Trace of Precipitation, MM = Missing Value Source: NWS Daily Summary

Daily Weather History Graph

Daily Weather History Graph

Search for Another Location

Airport or City:

Trip Planner

Search our weather history database for the weather conditions in past years. The results will help you decide how hot, cold, wet, or windy it might be!

Date:

Astronomy

Feb. 24, 2013 Rise Set
Actual Time 6:18 AM CST 5:39 PM CST
Civil Twilight 5:53 AM CST 6:04 PM CST
Nautical Twilight 5:25 AM CST 6:32 PM CST
Astronomical Twilight 4:56 AM CST 7:01 PM CST
Moon 4:49 PM CST (2/24) 5:13 AM CST (2/24)
Length of Visible Light 12h 10m
Length of Day
11h 20m
Waxing Gibbous, 99% of the Moon is Illuminated
Feb 24
Waxing Gibbous
Feb 25
Full
Mar 4
Last Quarter
Mar 11
New
Mar 19
First Quarter

Hourly Weather History & Observations

Time (CST) Temp. Windchill Dew Point Humidity Pressure Visibility Wind Dir Wind Speed Gust Speed Precip Events Conditions
12:10 AM 46.4 °F - 46.4 °F 100% 29.97 in 2.0 mi Calm Calm - N/A   Clear
12:20 AM 48.2 °F - 46.4 °F 93% 29.97 in 4.0 mi Calm Calm - N/A   Clear
12:31 AM 48.2 °F - 46.4 °F 93% 29.97 in 1.8 mi Calm Calm - N/A   Clear
12:35 AM 46.4 °F - 44.6 °F 93% 29.97 in 1.2 mi Calm Calm - N/A   Partly Cloudy
12:38 AM 46.4 °F - 44.6 °F 93% 29.97 in 0.8 mi Calm Calm - N/A   Mist
12:46 AM 44.6 °F - 44.6 °F 100% 29.97 in 0.2 mi Calm Calm - N/A Fog Fog
12:53 AM 45.0 °F - 43.0 °F 93% 29.97 in 0.5 mi Calm Calm - N/A Fog Fog
1:04 AM 44.6 °F - 42.8 °F 93% 29.97 in 1.2 mi Calm Calm - N/A   Partly Cloudy
1:06 AM 44.6 °F - 42.8 °F 93% 29.97 in 2.0 mi Calm Calm - N/A   Partly Cloudy
1:13 AM 44.6 °F - 42.8 °F 93% 29.98 in 1.0 mi Calm Calm - N/A   Mist
1:20 AM 42.8 °F - 42.8 °F 100% 29.97 in 0.2 mi Calm Calm - N/A Fog Fog
1:42 AM 42.8 °F - 41.0 °F 93% 29.97 in 0.5 mi Calm Calm - N/A Fog Fog
1:49 AM 44.6 °F - 42.8 °F 93% 29.97 in 0.2 mi Calm Calm - N/A Fog Fog
1:53 AM 43.0 °F 41.3 °F 42.1 °F 97% 29.97 in 0.2 mi WSW 3.5 mph - N/A Fog Fog
2:05 AM 42.8 °F - 41.0 °F 93% 29.97 in 0.2 mi Calm Calm - N/A Fog Fog
2:19 AM 42.8 °F - 39.2 °F 87% 29.97 in 0.5 mi Calm Calm - N/A Fog Fog
2:29 AM 42.8 °F 41.1 °F 41.0 °F 93% 29.97 in 0.2 mi WNW 3.5 mph - N/A Fog Fog
2:37 AM 42.8 °F 41.1 °F 41.0 °F 93% 29.97 in 0.2 mi NW 3.5 mph - N/A Fog Fog
2:53 AM 43.0 °F - 41.0 °F 93% 29.97 in 0.2 mi Calm Calm - N/A Fog Fog
3:53 AM 42.1 °F - 39.9 °F 92% 29.97 in 0.2 mi Calm Calm - N/A Fog Fog
4:42 AM 39.2 °F - 39.2 °F 100% 29.99 in 0.5 mi Calm Calm - N/A Fog Fog
4:53 AM 39.9 °F - 37.9 °F 93% 29.99 in 0.2 mi Calm Calm - N/A Fog Fog
5:16 AM 39.2 °F - 37.4 °F 93% 30.00 in 0.5 mi Calm Calm - N/A Fog Fog
5:20 AM 39.2 °F - 37.4 °F 93% 30.00 in 1.0 mi Calm Calm - N/A   Mist
5:24 AM 39.2 °F - 37.4 °F 93% 30.00 in 1.8 mi Calm Calm - N/A   Scattered Clouds
5:28 AM 39.2 °F - 37.4 °F 93% 30.00 in 1.0 mi Calm Calm - N/A   Mist
5:32 AM 37.4 °F - 37.4 °F 100% 30.00 in 0.5 mi Calm Calm - N/A Fog Fog
5:53 AM 39.0 °F - 37.0 °F 93% 30.01 in 0.2 mi Calm Calm - N/A Fog Fog
6:53 AM 41.0 °F - 39.0 °F 93% 30.01 in 0.2 mi Calm Calm - N/A Fog Fog
7:53 AM 44.1 °F 42.5 °F 42.1 °F 93% 30.04 in 0.2 mi ENE 3.5 mph - N/A Fog Fog
8:06 AM 44.6 °F - 42.8 °F 93% 30.04 in 0.2 mi Calm Calm - N/A Fog Fog
8:14 AM 44.6 °F 43.1 °F 42.8 °F 93% 30.04 in 1.0 mi ENE 3.5 mph - N/A   Mist
8:17 AM 46.4 °F 45.2 °F 42.8 °F 87% 30.04 in 2.0 mi ENE 3.5 mph - N/A   Overcast
8:26 AM 46.4 °F 43.5 °F 44.6 °F 93% 30.04 in 5.0 mi NNE 5.8 mph - N/A   Mostly Cloudy
8:40 AM 48.2 °F - 44.6 °F 87% 30.05 in 8.0 mi NNE 4.6 mph - N/A   Scattered Clouds
8:53 AM 48.9 °F - 46.0 °F 90% 30.06 in 8.0 mi SE 5.8 mph - N/A   Partly Cloudy
9:53 AM 55.0 °F - 46.0 °F 72% 30.05 in 10.0 mi ENE 4.6 mph - N/A   Clear
10:53 AM 62.1 °F - 43.0 °F 50% 30.04 in 10.0 mi NE 4.6 mph - N/A   Clear
11:53 AM 64.9 °F - 43.0 °F 45% 30.01 in 10.0 mi NE 5.8 mph - N/A   Clear
12:53 PM 68.0 °F - 39.0 °F 35% 29.99 in 10.0 mi NNE 3.5 mph - N/A   Clear
1:53 PM 70.0 °F - 37.9 °F 31% 29.96 in 10.0 mi East 5.8 mph - N/A   Clear
2:53 PM 71.1 °F - 37.9 °F 30% 29.96 in 10.0 mi Variable 4.6 mph - N/A   Clear
3:53 PM 72.0 °F - 37.9 °F 29% 29.96 in 10.0 mi Calm Calm - N/A   Clear
4:53 PM 69.1 °F - 37.9 °F 32% 29.95 in 10.0 mi East 3.5 mph - N/A   Clear
5:53 PM 63.0 °F - 39.9 °F 43% 29.95 in 10.0 mi Calm Calm - N/A   Clear
6:53 PM 57.9 °F - 41.0 °F 53% 29.95 in 10.0 mi Calm Calm - N/A   Clear
7:53 PM 55.9 °F - 42.1 °F 60% 29.95 in 10.0 mi ENE 3.5 mph - N/A   Clear
8:53 PM 57.0 °F - 39.9 °F 53% 29.95 in 10.0 mi Calm Calm - N/A   Clear
9:53 PM 55.9 °F - 39.9 °F 55% 29.92 in 10.0 mi NE 5.8 mph - N/A   Clear
10:53 PM 55.9 °F - 39.9 °F 55% 29.91 in 10.0 mi ENE 4.6 mph - N/A   Clear
11:53 PM 55.0 °F - 42.1 °F 62% 29.89 in 10.0 mi ENE 6.9 mph - N/A   Clear